647  
ASUS43 KIWX 190310  
RWRIWX  
 
KIWX WEATHER ROUNDUP  
NATIONAL WEATHER SERVICE NORTHERN INDIANA  
1100 PM EDT WED JUL 18 2018  
 
NOTE: "FAIR" INDICATES FEW OR NO CLOUDS BELOW 12,000 FEET WITH NO  
SIGNIFICANT WEATHER AND/OR S TO VISIBILITY
.  
 
* THESE STATIONS ARE NOT UNDER NWS QUALITY CONTROL. THEY ALSO MAY NOT  
REPORT WEATHER SUCH AS PRECIPITATION OR FOG.
 
 
INZ001>027-190400-  
NORTHERN INDIANA  
 
CITY SKY/WX TMP DP RH WIND PRES REMARKS
 
GARY* MOCLDY 70 57 64 NE7 30.07R  
VALPARAISO FAIR 65 57 75 CALM 30.06R  
MICHIGAN CITY* FAIR 59 55 88 CALM 30.07R  
LAPORTE* FAIR 64 56 75 NE3 30.07S  
KNOX* FAIR 59 54 82 CALM 30.06R  
SOUTH BEND FAIR 64 55 72 N5 30.07R  
GOSHEN FAIR 68 58 70 N6 30.06R  
MONTICELLO* FAIR 68 54 60 N7 30.04R  
LOGANSPORT* FAIR 66 57 72 N6 30.05S  
ROCHESTER* FAIR 70 57 64 CALM 30.06R  
WARSAW* FAIR 66 57 72 N3 30.06R  
KENDALLVILLE* FAIR 65 59 80 CALM 30.06S  
AUBURN* FAIR 66 61 82 CALM 30.06R  
FORT WAYNE MOCLDY 69 58 67 CALM 30.05R  
HUNTINGTON* FAIR 66 60 81 CALM 30.05R  
PERU/GRISSOM FAIR 68 61 77 CALM 30.04R  
MARION* FAIR 65 62 89 CALM 30.05R  
 

 
INZ028>050-190400-  
CENTRAL INDIANA  
 
CITY SKY/WX TMP DP RH WIND PRES REMARKS
 
LAFAYETTE FAIR 69 55 60 N8 30.03R  
KOKOMO* FAIR 66 62 87 CALM 30.05R  
MUNCIE* FAIR 68 57 68 CALM 30.05R  
INDIANAPOLIS MOCLDY 75 57 53 NE8 30.02R  
 

 
MIZ043>046-050>051-056>058-064>065-071>073-077>080-190400-  
SOUTHWEST LOWER MICHIGAN  
 
CITY SKY/WX TMP DP RH WIND PRES REMARKS
 
BATTLE CREEK FAIR 68 55 63 NE5 30.07S  
BENTON HARBOR FAIR 61 56 83 CALM 30.06R  
COLDWATER* FAIR 65 58 79 CALM 30.07R  
HILLSDALE* FAIR 61 55 82 CALM 30.07R  
HOLLAND FAIR 63 54 72 CALM 30.07R  
GRAND RAPIDS FAIR 70 55 59 NW6 30.07R  
KALAMAZOO FAIR 67 55 65 N3 30.07R  
STURGIS* FAIR 66 58 75 NE6 30.05S  
THREE RIVERS* FAIR 67 56 68 CALM 30.07R  
 

 
OHZ001>008-015>018-024>025-190400-  
NORTHWEST OHIO  
 
CITY SKY/WX TMP DP RH WIND PRES REMARKS
 
WAUSEON* FAIR 66 59 77 SE7 30.06R  
DEFIANCE MOCLDY 67 59 75 S3 30.06R  
FINDLAY FAIR 69 54 58 E7 30.07R  
OTTAWA* FAIR 63 55 77 E6 30.08R  
TOLEDO EXPRESS FAIR 67 54 63 CALM 30.06R  
LIMA FAIR 63 60 90 E8 30.07R  
 

 
AND FOR LAKE MICHIGAN COASTAL AND OPEN LAKE BUOY OBSERVATIONS  
 
STATION/POSITION TEMP WIND PRES VSBY WAVE
 
AIR SEA DIR/SP/G HT/PER  
(F) (DEG/KT/KT) (MB) (MI) (FT/S)  
CALUMET HARBOR 71 10/ 5/ 6 1017.4R  
MICHIGAN CITY 65 50/ 7/ 7 N/A  
BURNS HARBOR 69 70/ 4/ 7 1018.3R  
SAINT JOSEPH 67 60/ 3/ 6 1018.3  
SOUTH LAKE BUOY 70 73 50/ 8/ 10 1017.6S 1  
4 MI NW BRIDGMAN 64 62 70/ 4/ 6 1017.8 1/ 3  
MICHIGAN CITY 69 71 80/ 10/ 12 N/A 2/ 3  
 

 

 
 
 
CLICK HERE TO GO TO PREVIOUS BULLETINS.

The Nexlab IN Page
The Nexlab OH Page
The Nexlab MI Page Main Text Page